Lid_Strength_Index
5 4 4 4 4 4 4 4 4 4 4 4 4 3 3 3 3 3 3 3 3 3 3 3 3 3 4 8 7 2 -3 -1 2 2 5 6 8 8 9 6 5 6 6 5 4 4 4
4 4 4 4 4 5 4 4 4 4 4 4 3 3 3 3 3 3 3 3 3 3 3 3 3 3 6 11 4 3 3 3 3 3 3 3 5 6 8 7 6 5 5 5 5 5 4
5 5 4 4 5 4 4 4 4 4 4 3 3 3 4 4 3 3 3 3 3 3 3 3 3 4 7 9 4 4 4 5 4 4 5 3 2 4 5 8 6 6 7 6 5 5 5
5 4 4 4 4 4 4 4 4 4 4 3 3 3 3 3 3 3 3 3 3 3 3 3 3 4 9 5 4 5 4 5 5 5 5 4 3 4 5 5 6 7 7 9 6 5 5
4 4 4 4 4 4 4 4 4 4 4 4 3 3 4 4 3 3 3 3 3 3 3 3 4 6 9 3 6 4 4 6 6 5 5 4 5 6 5 7 8 8 10 9 8 5 6
4 4 4 4 4 4 4 4 4 4 4 4 3 3 3 4 4 3 3 3 3 3 3 3 3 7 6 7 6 5 4 4 6 6 6 7 7 8 8 9 12 10 10 9 9 7 6
4 4 4 4 4 4 4 4 4 4 4 3 3 3 3 3 3 3 4 4 6 7 5 7 6 7 7 6 5 7 6 7 7 7 9 7 9 11 10 8 8 8 8 9 8 6 7
4 5 4 4 4 4 4 4 4 4 3 3 3 3 3 3 3 4 4 6 6 6 10 7 7 7 6 6 9 8 6 9 9 11 8 9 11 8 7 8 8 9 9 9 7 6 7
4 3 4 4 4 4 4 4 4 3 3 3 3 4 3 3 2 2 2 3 1 2 9 8 6 7 6 6 8 8 7 8 10 11 10 10 10 7 8 8 9 9 9 9 9 7 7
4 4 4 4 4 4 4 4 4 4 3 3 3 3 2 -0 1 0 2 -0 -1 -0 9 8 7 6 5 5 8 4 4 6 9 11 10 11 8 9 8 9 8 10 8 8 8 9 12
4 5 5 4 4 4 4 4 4 4 3 2 2 1 -1 -1 1 2 1 -1 -1 2 17 7 6 2 3 5 5 5 3 5 9 9 9 13 11 10 10 9 7 9 6 7 8 9 9
5 5 5 4 4 4 4 4 3 3 2 1 1 -1 -1 -0 0 -0 -1 -1 1 12 17 9 6 7 7 6 6 4 4 3 4 7 8 10 8 9 9 8 7 6 7 8 8 9 13
5 5 5 5 5 4 4 4 3 2 2 1 0 -0 -0 -1 2 -1 -1 2 13 16 9 10 9 8 7 8 7 6 7 7 9 12 11 10 9 9 9 9 7 7 9 13 14 14 15
5 5 5 5 5 4 4 3 2 2 2 1 1 0 -1 -1 -1 -1 1 7 16 12 10 7 7 7 9 7 7 7 8 9 7 8 11 13 13 10 9 10 9 8 9 12 16 15 13
5 5 5 5 4 4 3 2 2 2 2 2 1 -0 0 -1 -2 -0 5 13 13 10 7 8 8 10 10 9 8 8 9 9 8 7 12 13 12 7 8 8 7 9 11 8 11 10 12
5 5 5 5 4 3 2 2 2 2 2 2 2 2 1 -1 -2 2 8 11 9 6 6 7 10 11 12 10 11 10 9 7 8 7 7 9 14 8 7 7 7 8 7 11 10 15 16
5 5 5 5 4 3 2 2 2 1 2 2 1 4 1 -1 -1 5 11 9 7 5 5 7 9 10 10 10 10 10 11 8 7 7 6 8 10 11 9 9 10 9 10 9 9 10 14
5 5 5 5 4 2 2 2 2 2 2 2 2 6 0 -1 7 7 9 7 6 7 5 6 6 8 9 9 10 10 12 11 7 7 10 8 12 14 11 7 6 7 9 9 12 13 11
5 5 5 5 4 3 2 2 2 1 2 2 5 4 0 1 10 9 7 7 6 7 7 7 7 7 6 8 11 11 9 7 7 8 10 10 12 16 13 10 8 9 8 8 9 9 12
4 5 5 5 4 4 3 2 1 1 1 2 4 7 4 3 4 7 8 8 9 5 6 6 7 6 8 9 8 11 10 7 7 7 7 8 12 13 16 13 11 12 9 8 9 12 11
4 4 5 5 5 4 4 3 1 1 1 1 4 6 5 8 7 7 7 8 9 8 6 6 8 7 8 10 9 10 8 8 7 7 8 10 14 12 11 11 12 12 9 9 9 9 11
4 4 4 3 4 4 4 4 3 1 1 2 5 6 5 7 6 7 7 8 8 7 7 8 8 8 7 9 9 11 8 8 10 7 9 9 14 12 13 12 12 13 10 8 8 8 9
3 3 3 3 3 4 4 4 3 2 1 2 2 2 6 7 7 7 8 7 8 7 6 6 7 9 8 7 6 6 5 6 7 8 9 9 13 14 16 13 13 15 11 9 8 7 8
3 3 3 3 3 4 4 4 4 3 2 2 2 3 6 9 7 8 8 6 7 7 8 6 6 8 6 3 4 5 6 6 7 7 7 9 12 13 16 15 20 10 7 7 8 7 7
3 3 3 3 3 4 4 4 4 4 2 2 1 3 5 9 7 7 7 7 7 6 7 7 5 4 3 5 10 12 11 9 8 7 8 7 11 15 18 17 14 11 9 9 9 11 8
3 3 3 2 3 4 4 5 4 4 3 2 1 0 3 7 7 5 7 7 9 8 8 6 4 3 4 8 11 14 16 14 15 12 8 9 9 14 15 19 21 14 8 6 7 14 7
3 3 3 2 2 2 4 5 4 4 4 3 2 -1 3 7 5 5 8 8 6 7 9 7 6 6 4 9 14 14 14 10 15 16 14 14 13 15 14 18 15 10 7 6 14 14 6
5 4 3 3 2 2 3 5 4 4 4 4 3 -0 2 6 5 4 3 6 6 7 10 7 8 7 8 11 12 12 13 11 13 11 14 15 16 15 13 17 19 8 8 12 9 6 6
5 4 3 3 3 2 3 4 4 4 4 4 5 -0 -1 5 5 2 2 1 2 3 6 6 8 8 8 11 9 10 12 11 13 16 10 15 13 14 13 14 9 7 8 6 5 6 5